| time (UTC) | temp F | wind direction | speed MPH | gust MPH | rain 1hr in | rain 24hr in | rain mn in | humidity % | barometer mb |
| 20260906025943 | 78 | 282 | 5.0 | 10.0 | 0.00 | 0.00 | 0.00 | 34 | 1020.6 |
| 20260906025445 | 77 | 269 | 5.0 | 8.0 | 0.00 | 0.00 | 0.00 | 34 | 1020.6 |
| 20260906024942 | 78 | 292 | 5.0 | 9.0 | 0.00 | 0.00 | 0.00 | 34 | 1020.6 |
| 20260906024714 | 77 | 295 | 5.0 | 9.0 | 0.00 | 0.00 | 0.00 | 34 | 1020.6 |
| 20260906023945 | 77 | 281 | 6.0 | 9.0 | 0.00 | 0.00 | 0.00 | 34 | 1020.6 |
| 20260906023442 | 77 | 279 | 5.0 | 9.0 | 0.00 | 0.00 | 0.00 | 34 | 1020.6 |
| 20260906022943 | 77 | 299 | 4.0 | 7.0 | 0.00 | 0.00 | 0.00 | 34 | 1020.6 |
| 20260906022442 | 78 | 266 | 5.0 | 9.0 | 0.00 | 0.00 | 0.00 | 34 | 1020.6 |
| 20260906021945 | 78 | 297 | 5.0 | 10.0 | 0.00 | 0.00 | 0.00 | 33 | 1020.6 |
| 20260906021443 | 78 | 298 | 5.0 | 10.0 | 0.00 | 0.00 | 0.00 | 33 | 1020.6 |
| 20260906020942 | 78 | 296 | 4.0 | 7.0 | 0.00 | 0.00 | 0.00 | 32 | 1020.6 |
| 20260906020713 | 79 | 298 | 5.0 | 9.0 | 0.00 | 0.00 | 0.00 | 31 | 1020.6 |
| 20260906015945 | 80 | 295 | 6.0 | 11.0 | 0.00 | 0.00 | 0.00 | 31 | 1020.6 |
| 20260906015443 | 80 | 275 | 7.0 | 13.0 | 0.00 | 0.00 | 0.00 | 31 | 1020.6 |
| 20260906014944 | 80 | 287 | 7.0 | 13.0 | 0.00 | 0.00 | 0.00 | 31 | 1020.6 |
| 20260906014443 | 80 | 296 | 6.0 | 12.0 | 0.00 | 0.00 | 0.00 | 31 | 1020.6 |
| 20260906013943 | 79 | 295 | 6.0 | 9.0 | 0.00 | 0.00 | 0.00 | 32 | 1020.6 |
| 20260906013443 | 79 | 288 | 5.0 | 9.0 | 0.00 | 0.00 | 0.00 | 32 | 1020.6 |
| 20260906013215 | 80 | 297 | 5.0 | 9.0 | 0.00 | 0.00 | 0.00 | 32 | 1020.6 |
| 20260906012443 | 79 | 302 | 6.0 | 9.0 | 0.00 | 0.00 | 0.00 | 32 | 1020.6 |
| 20260906011943 | 80 | 301 | 6.0 | 10.0 | 0.00 | 0.00 | 0.00 | 32 | 1020.6 |
| 20260906011445 | 80 | 293 | 6.0 | 10.0 | 0.00 | 0.00 | 0.00 | 32 | 1020.6 |
| 20260906011214 | 80 | 274 | 7.0 | 10.0 | 0.00 | 0.00 | 0.00 | 32 | 1020.6 |
| 20260906010444 | 80 | 298 | 7.0 | 10.0 | 0.00 | 0.00 | 0.00 | 31 | 1020.6 |
| 20260906005943 | 80 | 302 | 7.0 | 10.0 | 0.00 | 0.00 | 0.00 | 31 | 1020.6 |
| 20260906005716 | 80 | 285 | 6.0 | 10.0 | 0.00 | 0.00 | 0.00 | 31 | 1020.6 |
| 20260906005214 | 81 | 317 | 6.0 | 9.0 | 0.00 | 0.00 | 0.00 | 31 | 1020.6 |
| 20260906004444 | 80 | 296 | 5.0 | 8.0 | 0.00 | 0.00 | 0.00 | 31 | 1020.6 |
| 20260906003944 | 81 | 314 | 6.0 | 11.0 | 0.00 | 0.00 | 0.00 | 31 | 1020.6 |
| 20260906003443 | 81 | 302 | 7.0 | 12.0 | 0.00 | 0.00 | 0.00 | 30 | 1020.6 |
| 20260906002943 | 82 | 299 | 6.0 | 12.0 | 0.00 | 0.00 | 0.00 | 30 | 1020.6 |
| 20260906002714 | 83 | 308 | 4.0 | 9.0 | 0.00 | 0.00 | 0.00 | 29 | 1020.6 |
| 20260906001940 | 83 | 336 | 4.0 | 9.0 | 0.00 | 0.00 | 0.00 | 27 | 1020.6 |
| 20260906001440 | 83 | 330 | 4.0 | 8.0 | 0.00 | 0.00 | 0.00 | 27 | 1020.6 |
| 20260906001211 | 84 | 20 | 4.0 | 9.0 | 0.00 | 0.00 | 0.00 | 27 | 1020.6 |
| 20260906000440 | 84 | 18 | 5.0 | 10.0 | 0.00 | 0.00 | 0.00 | 27 | 1020.6 |
| 20260906000212 | 85 | 6 | 4.0 | 10.0 | 0.00 | 0.00 | 0.00 | 26 | 1020.6 |
| 20260905235442 | 85 | 333 | 4.0 | 9.0 | 0.00 | 0.00 | 0.00 | 26 | 1020.6 |
| 20260905234941 | 85 | 313 | 4.0 | 9.0 | 0.00 | 0.00 | 0.00 | 26 | 1020.6 |
| 20260905234441 | 85 | 49 | 4.0 | 8.0 | 0.00 | 0.00 | 0.00 | 26 | 1020.6 |
| 20260905233940 | 85 | 327 | 4.0 | 8.0 | 0.00 | 0.00 | 0.00 | 26 | 1020.6 |
| 20260905233441 | 85 | 15 | 4.0 | 10.0 | 0.00 | 0.00 | 0.00 | 26 | 1020.6 |
| 20260905232938 | 86 | 35 | 4.0 | 10.0 | 0.00 | 0.00 | 0.00 | 25 | 1020.6 |
| 20260905232439 | 86 | 4 | 4.0 | 7.0 | 0.00 | 0.00 | 0.00 | 25 | 1020.6 |
| 20260905231939 | 87 | 55 | 4.0 | 8.0 | 0.00 | 0.00 | 0.00 | 25 | 1020.6 |
| 20260905231440 | 87 | 51 | 4.0 | 8.0 | 0.00 | 0.00 | 0.00 | 24 | 1020.6 |
| 20260905230938 | 86 | 70 | 3.0 | 7.0 | 0.00 | 0.00 | 0.00 | 25 | 1020.6 |
| 20260905230439 | 86 | 70 | 3.0 | 7.0 | 0.00 | 0.00 | 0.00 | 26 | 1020.6 |
| 20260905225939 | 86 | 69 | 3.0 | 7.0 | 0.00 | 0.00 | 0.00 | 25 | 1020.6 |
| 20260905225438 | 87 | 79 | 2.0 | 7.0 | 0.00 | 0.00 | 0.00 | 25 | 1020.6 |
| 20260905224939 | 88 | 348 | 1.0 | 2.0 | 0.00 | 0.00 | 0.00 | 24 | 1020.6 |
| 20260905224935 | 87 | 95 | 1.0 | 4.0 | 0.00 | 0.00 | 0.00 | 24 | 1020.6 |
| 20260905223936 | 88 | 325 | 1.0 | 4.0 | 0.00 | 0.00 | 0.00 | 24 | 1020.6 |
| 20260905223434 | 87 | 98 | 2.0 | 4.0 | 0.00 | 0.00 | 0.00 | 24 | 1020.6 |
| 20260905223207 | 87 | 69 | 2.0 | 4.0 | 0.00 | 0.00 | 0.00 | 24 | 1020.6 |
| 20260905222437 | 88 | 82 | 1.0 | 4.0 | 0.00 | 0.00 | 0.00 | 24 | 1020.6 |
| 20260905221934 | 87 | 168 | 1.0 | 5.0 | 0.00 | 0.00 | 0.00 | 24 | 1020.6 |
| 20260905221432 | 86 | 79 | 4.0 | 9.0 | 0.00 | 0.00 | 0.00 | 25 | 1020.6 |
| 20260905220928 | 87 | 130 | 3.0 | 9.0 | 0.00 | 0.00 | 0.00 | 25 | 1020.6 |
| 20260905220431 | 88 | 82 | 1.0 | 7.0 | 0.00 | 0.00 | 0.00 | 24 | 1020.6 |
| 20260905215927 | 88 | 251 | 3.0 | 8.0 | 0.00 | 0.00 | 0.00 | 24 | 1020.6 |
| 20260905215428 | 89 | 97 | 6.0 | 13.0 | 0.00 | 0.00 | 0.00 | 24 | 1020.6 |
| 20260905214928 | 89 | 100 | 5.0 | 13.0 | 0.00 | 0.00 | 0.00 | 24 | 1020.6 |
| 20260905214425 | 90 | 80 | 3.0 | 11.0 | 0.00 | 0.00 | 0.00 | 23 | 1020.6 |
| 20260905213927 | 90 | 99 | 4.0 | 9.0 | 0.00 | 0.00 | 0.00 | 23 | 1020.6 |
| 20260905213425 | 89 | 68 | 3.0 | 9.0 | 0.00 | 0.00 | 0.00 | 24 | 1020.6 |
| 20260905212925 | 89 | 91 | 2.0 | 9.0 | 0.00 | 0.00 | 0.00 | 25 | 1020.6 |
| 20260905212427 | 89 | 14 | 3.0 | 7.0 | 0.00 | 0.00 | 0.00 | 24 | 1020.6 |
| 20260905211925 | 88 | 82 | 4.0 | 13.0 | 0.00 | 0.00 | 0.00 | 24 | 1020.6 |
| 20260905211425 | 89 | 96 | 2.0 | 13.0 | 0.00 | 0.00 | 0.00 | 23 | 1020.6 |
| 20260905210924 | 89 | 150 | 2.0 | 8.0 | 0.00 | 0.00 | 0.00 | 24 | 1020.6 |
| 20260905210655 | 88 | 70 | 3.0 | 8.0 | 0.00 | 0.00 | 0.00 | 24 | 1020.6 |
| 20260905205923 | 88 | 101 | 3.0 | 6.0 | 0.00 | 0.00 | 0.00 | 24 | 1020.6 |
| 20260905205422 | 88 | 20 | 4.0 | 8.0 | 0.00 | 0.00 | 0.00 | 24 | 1020.6 |
| 20260905204924 | 88 | 117 | 4.0 | 12.0 | 0.00 | 0.00 | 0.00 | 24 | 1020.6 |
| 20260905204422 | 89 | 112 | 4.0 | 12.0 | 0.00 | 0.00 | 0.00 | 23 | 1020.6 |
| 20260905203922 | 89 | 59 | 6.0 | 13.0 | 0.00 | 0.00 | 0.00 | 23 | 1020.6 |
| 20260905203422 | 89 | 82 | 6.0 | 13.0 | 0.00 | 0.00 | 0.00 | 24 | 1020.6 |
| 20260905202924 | 88 | 240 | 5.0 | 12.0 | 0.00 | 0.00 | 0.00 | 25 | 1020.6 |
| 20260905202421 | 88 | 124 | 4.0 | 12.0 | 0.00 | 0.00 | 0.00 | 25 | 1020.6 |
| 20260905202153 | 87 | 71 | 2.0 | 10.0 | 0.00 | 0.00 | 0.00 | 26 | 1020.6 |
| 20260905201421 | 87 | 209 | 3.0 | 7.0 | 0.00 | 0.00 | 0.00 | 27 | 1020.6 |
| 20260905201153 | 86 | 80 | 5.0 | 12.0 | 0.00 | 0.00 | 0.00 | 26 | 1020.6 |
| 20260905200420 | 87 | 84 | 5.0 | 15.0 | 0.00 | 0.00 | 0.00 | 25 | 1020.6 |
| 20260905195920 | 89 | 67 | 5.0 | 15.0 | 0.00 | 0.00 | 0.00 | 25 | 1020.6 |
| 20260905195420 | 88 | 65 | 6.0 | 12.0 | 0.00 | 0.00 | 0.00 | 24 | 1020.6 |
| 20260905195153 | 89 | 53 | 7.0 | 13.0 | 0.00 | 0.00 | 0.00 | 24 | 1020.6 |
| 20260905194652 | 88 | 72 | 6.0 | 13.0 | 0.00 | 0.00 | 0.00 | 24 | 1020.6 |
| 20260905193922 | 88 | 110 | 5.0 | 11.0 | 0.00 | 0.00 | 0.00 | 25 | 1020.6 |
| 20260905193651 | 88 | 57 | 5.0 | 11.0 | 0.00 | 0.00 | 0.00 | 25 | 1020.6 |
| 20260905192920 | 87 | 127 | 6.0 | 14.0 | 0.00 | 0.00 | 0.00 | 26 | 1020.6 |
| 20260905192651 | 87 | 47 | 8.0 | 14.0 | 0.00 | 0.00 | 0.00 | 25 | 1020.6 |
| 20260905191918 | 88 | 75 | 7.0 | 12.0 | 0.00 | 0.00 | 0.00 | 26 | 1020.6 |
| 20260905191649 | 87 | 84 | 6.0 | 12.0 | 0.00 | 0.00 | 0.00 | 27 | 1020.6 |
| 20260905190918 | 87 | 107 | 5.0 | 13.0 | 0.00 | 0.00 | 0.00 | 27 | 1020.6 |
| 20260905190419 | 87 | 84 | 5.0 | 13.0 | 0.00 | 0.00 | 0.00 | 25 | 1020.6 |
| 20260905185919 | 86 | 120 | 4.0 | 12.0 | 0.00 | 0.00 | 0.00 | 26 | 1020.6 |
| 20260905185420 | 87 | 112 | 4.0 | 14.0 | 0.00 | 0.00 | 0.00 | 25 | 1020.6 |
| 20260905185150 | 87 | 39 | 5.0 | 14.0 | 0.00 | 0.00 | 0.00 | 25 | 1020.6 |
| 20260905184418 | 87 | 74 | 5.0 | 12.0 | 0.00 | 0.00 | 0.00 | 25 | 1020.6 |
| 20260905183920 | 87 | 91 | 4.0 | 12.0 | 0.00 | 0.00 | 0.00 | 26 | 1020.6 |
| 20260905183423 | 86 | 91 | 3.0 | 9.0 | 0.00 | 0.00 | 0.00 | 29 | 1020.6 |
| 20260905183418 | 87 | 85 | 3.0 | 10.0 | 0.00 | 0.00 | 0.00 | 28 | 1020.6 |
| 20260905182419 | 86 | 248 | 3.0 | 9.0 | 0.00 | 0.00 | 0.00 | 28 | 1020.6 |
| 20260905182152 | 86 | 94 | 4.0 | 9.0 | 0.00 | 0.00 | 0.00 | 30 | 1020.6 |
| 20260905181649 | 85 | 79 | 4.0 | 9.0 | 0.00 | 0.00 | 0.00 | 31 | 1020.6 |
| 20260905180920 | 84 | 56 | 2.0 | 9.0 | 0.00 | 0.00 | 0.00 | 30 | 1020.6 |
| 20260905180417 | 84 | 70 | 2.0 | 7.0 | 0.00 | 0.00 | 0.00 | 30 | 1020.6 |
| 20260905175918 | 84 | 227 | 3.0 | 9.0 | 0.00 | 0.00 | 0.00 | 30 | 1020.6 |
| 20260905175418 | 85 | 117 | 3.0 | 9.0 | 0.00 | 0.00 | 0.00 | 30 | 1020.6 |
| 20260905175151 | 85 | 102 | 2.0 | 10.0 | 0.00 | 0.00 | 0.00 | 30 | 1020.6 |
| 20260905174418 | 85 | 118 | 3.0 | 10.0 | 0.00 | 0.00 | 0.00 | 31 | 1020.6 |
| 20260905173918 | 84 | 241 | 4.0 | 10.0 | 0.00 | 0.00 | 0.00 | 32 | 1020.6 |
| 20260905173416 | 85 | 109 | 3.0 | 10.0 | 0.00 | 0.00 | 0.00 | 32 | 1020.6 |
| 20260905172918 | 84 | 84 | 3.0 | 10.0 | 0.00 | 0.00 | 0.00 | 31 | 1020.6 |
| 20260905172417 | 83 | 120 | 4.0 | 10.0 | 0.00 | 0.00 | 0.00 | 32 | 1020.6 |
| 20260905172149 | 83 | 90 | 3.0 | 10.0 | 0.00 | 0.00 | 0.00 | 32 | 1020.6 |
| 20260905171417 | 84 | 103 | 3.0 | 7.0 | 0.00 | 0.00 | 0.00 | 32 | 1020.6 |
| 20260905170915 | 84 | 98 | 3.0 | 8.0 | 0.00 | 0.00 | 0.00 | 31 | 1020.6 |
| 20260905170412 | 85 | 91 | 3.0 | 8.0 | 0.00 | 0.00 | 0.00 | 31 | 1020.6 |
| 20260905170145 | 85 | 80 | 2.0 | 7.0 | 0.00 | 0.00 | 0.00 | 32 | 1020.6 |
| 20260905165413 | 85 | 127 | 2.0 | 9.0 | 0.00 | 0.00 | 0.00 | 31 | 1020.6 |
| 20260905164913 | 85 | 125 | 3.0 | 9.0 | 0.00 | 0.00 | 0.00 | 31 | 1020.6 |
| 20260905164640 | 85 | 102 | 4.0 | 6.0 | 0.00 | 0.00 | 0.00 | 32 | 1020.6 |
| 20260905163911 | 84 | 122 | 5.0 | 10.0 | 0.00 | 0.00 | 0.00 | 31 | 1020.6 |
| 20260905163642 | 84 | 74 | 4.0 | 10.0 | 0.00 | 0.00 | 0.00 | 29 | 1020.6 |
| 20260905162911 | 84 | 79 | 3.0 | 7.0 | 0.00 | 0.00 | 0.00 | 31 | 1020.6 |
| 20260905162409 | 83 | 111 | 4.0 | 8.0 | 0.00 | 0.00 | 0.00 | 30 | 1020.6 |
| 20260905162139 | 83 | 89 | 4.0 | 8.0 | 0.00 | 0.00 | 0.00 | 30 | 1020.6 |
| 20260905161409 | 83 | 123 | 3.0 | 6.0 | 0.00 | 0.00 | 0.00 | 29 | 1020.6 |
| 20260905160909 | 83 | 122 | 2.0 | 6.0 | 0.00 | 0.00 | 0.00 | 29 | 1020.6 |
| 20260905160409 | 83 | 99 | 2.0 | 5.0 | 0.00 | 0.00 | 0.00 | 30 | 1020.6 |
| 20260905155908 | 82 | 89 | 1.0 | 3.0 | 0.00 | 0.00 | 0.00 | 30 | 1020.6 |
| 20260905155410 | 82 | 84 | 1.0 | 2.0 | 0.00 | 0.00 | 0.00 | 28 | 1020.6 |
| 20260905154908 | 82 | 226 | 0.0 | 2.0 | 0.00 | 0.00 | 0.00 | 28 | 1020.6 |
| 20260905154409 | 82 | 140 | 0.0 | 2.0 | 0.00 | 0.00 | 0.00 | 31 | 1020.6 |
| 20260905153907 | 81 | 115 | 0.0 | 2.0 | 0.00 | 0.00 | 0.00 | 30 | 1020.6 |
| 20260905153408 | 80 | 89 | 0.0 | 2.0 | 0.00 | 0.00 | 0.00 | 31 | 1020.6 |
| 20260905152906 | 79 | 92 | 0.0 | 2.0 | 0.00 | 0.00 | 0.00 | 32 | 1020.6 |
| 20260905152407 | 78 | 98 | 0.0 | 2.0 | 0.00 | 0.00 | 0.00 | 33 | 1020.6 |
| 20260905151904 | 76 | 88 | 0.0 | 2.0 | 0.00 | 0.00 | 0.00 | 36 | 1020.6 |
| 20260905151406 | 75 | 88 | 0.0 | 0.0 | 0.00 | 0.00 | 0.00 | 37 | 1020.6 |
| 20260905150903 | 74 | 88 | 0.0 | 0.0 | 0.00 | 0.00 | 0.00 | 38 | 1020.6 |
| 20260905150404 | 73 | 88 | 0.0 | 0.0 | 0.00 | 0.00 | 0.00 | 38 | 1020.6 |
| 20260905145903 | 74 | 89 | 0.0 | 0.0 | 0.00 | 0.00 | 0.00 | 38 | 1020.6 |
| 20260905145406 | 74 | 88 | 0.0 | 0.0 | 0.00 | 0.00 | 0.00 | 38 | 1020.6 |
| 20260905144903 | 73 | 88 | 0.0 | 0.0 | 0.00 | 0.00 | 0.00 | 39 | 1020.6 |
| 20260905144404 | 73 | 88 | 0.0 | 1.0 | 0.00 | 0.00 | 0.00 | 37 | 1020.6 |
| 20260905143903 | 74 | 88 | 0.0 | 2.0 | 0.00 | 0.00 | 0.00 | 37 | 1020.6 |
| 20260905143405 | 75 | 88 | 1.0 | 2.0 | 0.00 | 0.00 | 0.00 | 36 | 1020.6 |
| 20260905142903 | 76 | 246 | 0.0 | 1.0 | 0.00 | 0.00 | 0.00 | 34 | 1020.6 |
| 20260905142405 | 77 | 248 | 0.0 | 0.0 | 0.00 | 0.00 | 0.00 | 34 | 1020.6 |
| 20260905141904 | 77 | 248 | 0.0 | 0.0 | 0.00 | 0.00 | 0.00 | 33 | 1020.6 |
| 20260905141406 | 77 | 250 | 0.0 | 1.0 | 0.00 | 0.00 | 0.00 | 34 | 1020.6 |
| 20260905140903 | 77 | 243 | 0.0 | 1.0 | 0.00 | 0.00 | 0.00 | 34 | 1020.6 |
| 20260905140406 | 78 | 88 | 0.0 | 1.0 | 0.00 | 0.00 | 0.00 | 34 | 1020.6 |
| 20260905135903 | 77 | 86 | 0.0 | 0.0 | 0.00 | 0.00 | 0.00 | 36 | 1020.6 |
| 20260905135404 | 76 | 86 | 0.0 | 1.0 | 0.00 | 0.00 | 0.00 | 36 | 1020.6 |
| 20260905134904 | 74 | 86 | 1.0 | 3.0 | 0.00 | 0.00 | 0.00 | 39 | 1020.6 |
| 20260905134405 | 74 | 86 | 1.0 | 3.0 | 0.00 | 0.00 | 0.00 | 38 | 1020.6 |
| 20260905133904 | 73 | 109 | 0.0 | 1.0 | 0.00 | 0.00 | 0.00 | 38 | 1020.6 |
| 20260905133405 | 73 | 230 | 0.0 | 1.0 | 0.00 | 0.00 | 0.00 | 39 | 1020.6 |
| 20260905133137 | 72 | 125 | 0.0 | 1.0 | 0.00 | 0.00 | 0.00 | 40 | 1020.6 |
| 20260905132404 | 71 | 224 | 0.0 | 2.0 | 0.00 | 0.00 | 0.00 | 40 | 1020.6 |
| 20260905131904 | 70 | 276 | 0.0 | 2.0 | 0.00 | 0.00 | 0.00 | 42 | 1020.6 |
| 20260905131404 | 70 | 253 | 0.0 | 1.0 | 0.00 | 0.00 | 0.00 | 41 | 1020.6 |
| 20260905130903 | 69 | 245 | 0.0 | 1.0 | 0.00 | 0.00 | 0.00 | 41 | 1020.6 |
| 20260905130403 | 69 | 234 | 0.0 | 3.0 | 0.00 | 0.00 | 0.00 | 42 | 1020.6 |
| 20260905125905 | 68 | 224 | 0.0 | 3.0 | 0.00 | 0.00 | 0.00 | 43 | 1020.6 |
| 20260905125637 | 68 | 150 | 0.0 | 2.0 | 0.00 | 0.00 | 0.00 | 44 | 1020.6 |
| 20260905125134 | 67 | 150 | 0.0 | 2.0 | 0.00 | 0.00 | 0.00 | 45 | 1020.6 |
| 20260905124401 | 66 | 257 | 0.0 | 2.0 | 0.00 | 0.00 | 0.00 | 45 | 1020.6 |
| 20260905123903 | 66 | 165 | 0.0 | 2.0 | 0.00 | 0.00 | 0.00 | 45 | 1020.6 |
| 20260905123404 | 67 | 228 | 0.0 | 2.0 | 0.00 | 0.00 | 0.00 | 45 | 1020.6 |
| 20260905122903 | 67 | 221 | 0.0 | 4.0 | 0.00 | 0.00 | 0.00 | 43 | 1020.6 |
| 20260905122402 | 68 | 245 | 0.0 | 4.0 | 0.00 | 0.00 | 0.00 | 42 | 1020.6 |
| 20260905121903 | 69 | 99 | 1.0 | 2.0 | 0.00 | 0.00 | 0.00 | 41 | 1020.6 |
| 20260905121403 | 68 | 86 | 0.0 | 2.0 | 0.00 | 0.00 | 0.00 | 41 | 1020.6 |
| 20260905120903 | 68 | 217 | 0.0 | 1.0 | 0.00 | 0.00 | 0.00 | 41 | 1020.6 |
| 20260905120406 | 67 | 223 | 0.0 | 0.0 | 0.00 | 0.00 | 0.00 | 41 | 1020.6 |
| 20260905120402 | 68 | 240 | 0.0 | 1.0 | 0.00 | 0.00 | 0.00 | 40 | 1020.6 |
| 20260905115400 | 67 | 214 | 0.0 | 2.0 | 0.00 | 0.00 | 0.00 | 42 | 1020.6 |
| 20260905115131 | 68 | 214 | 0.0 | 2.0 | 0.00 | 0.00 | 0.00 | 42 | 1020.6 |
| 20260905114400 | 69 | 216 | 0.0 | 2.0 | 0.00 | 0.00 | 0.00 | 39 | 1020.6 |
| 20260905113902 | 69 | 285 | 0.0 | 1.0 | 0.00 | 0.00 | 0.00 | 39 | 1020.6 |
| 20260905113359 | 69 | 286 | 0.0 | 2.0 | 0.00 | 0.00 | 0.00 | 40 | 1020.6 |
| 20260905112859 | 69 | 285 | 0.0 | 2.0 | 0.00 | 0.00 | 0.00 | 41 | 1020.6 |
| 20260905112359 | 70 | 286 | 0.0 | 2.0 | 0.00 | 0.00 | 0.00 | 38 | 1020.6 |
| 20260905112132 | 72 | 286 | 1.0 | 3.0 | 0.00 | 0.00 | 0.00 | 36 | 1020.6 |
| 20260905111402 | 73 | 275 | 1.0 | 3.0 | 0.00 | 0.00 | 0.00 | 35 | 1020.6 |
| 20260905111131 | 72 | 273 | 0.0 | 2.0 | 0.00 | 0.00 | 0.00 | 36 | 1020.6 |
| 20260905110357 | 72 | 276 | 0.0 | 2.0 | 0.00 | 0.00 | 0.00 | 36 | 1020.6 |
| 20260905105859 | 72 | 280 | 0.0 | 2.0 | 0.00 | 0.00 | 0.00 | 36 | 1020.6 |
| 20260905105358 | 73 | 279 | 0.0 | 1.0 | 0.00 | 0.00 | 0.00 | 37 | 1020.6 |
| 20260905104857 | 73 | 279 | 0.0 | 2.0 | 0.00 | 0.00 | 0.00 | 36 | 1020.6 |
| 20260905104359 | 72 | 279 | 0.0 | 2.0 | 0.00 | 0.00 | 0.00 | 38 | 1020.6 |
| 20260905103858 | 71 | 293 | 1.0 | 2.0 | 0.00 | 0.00 | 0.00 | 39 | 1020.6 |
| 20260905103634 | 71 | 293 | 1.0 | 2.0 | 0.00 | 0.00 | 0.00 | 39 | 1020.6 |
| 20260905102357 | 71 | 286 | 0.0 | 0.0 | 0.00 | 0.00 | 0.00 | 39 | 1020.6 |
| 20260905101900 | 71 | 286 | 0.0 | 1.0 | 0.00 | 0.00 | 0.00 | 39 | 1020.6 |
| 20260905101357 | 72 | 286 | 1.0 | 3.0 | 0.00 | 0.00 | 0.00 | 39 | 1020.6 |
| 20260905100857 | 73 | 286 | 1.0 | 3.0 | 0.00 | 0.00 | 0.00 | 37 | 1020.6 |
| 20260905100357 | 73 | 279 | 2.0 | 4.0 | 0.00 | 0.00 | 0.00 | 37 | 1020.6 |
| 20260905095858 | 72 | 284 | 1.0 | 4.0 | 0.00 | 0.00 | 0.00 | 38 | 1020.6 |
| 20260905095358 | 73 | 271 | 1.0 | 3.0 | 0.00 | 0.00 | 0.00 | 37 | 1020.6 |
| 20260905094859 | 73 | 278 | 0.0 | 2.0 | 0.00 | 0.00 | 0.00 | 36 | 1020.6 |
| 20260905094358 | 73 | 278 | 1.0 | 3.0 | 0.00 | 0.00 | 0.00 | 36 | 1020.6 |
| 20260905093900 | 73 | 278 | 0.0 | 3.0 | 0.00 | 0.00 | 0.00 | 37 | 1020.6 |
| 20260905093358 | 73 | 279 | 1.0 | 3.0 | 0.00 | 0.00 | 0.00 | 37 | 1020.6 |
| 20260905092857 | 74 | 281 | 1.0 | 3.0 | 0.00 | 0.00 | 0.00 | 36 | 1020.6 |
| 20260905092628 | 74 | 277 | 1.0 | 3.0 | 0.00 | 0.00 | 0.00 | 36 | 1020.6 |
| 20260905091855 | 74 | 269 | 2.0 | 3.0 | 0.00 | 0.00 | 0.00 | 36 | 1020.6 |
| 20260905091356 | 74 | 274 | 2.0 | 3.0 | 0.00 | 0.00 | 0.00 | 36 | 1020.6 |
| 20260905090857 | 74 | 276 | 1.0 | 2.0 | 0.00 | 0.00 | 0.00 | 36 | 1020.6 |
| 20260905090358 | 73 | 270 | 1.0 | 3.0 | 0.00 | 0.00 | 0.00 | 36 | 1020.6 |
| 20260905085855 | 73 | 280 | 1.0 | 3.0 | 0.00 | 0.00 | 0.00 | 37 | 1020.6 |
| 20260905085355 | 73 | 278 | 1.0 | 2.0 | 0.00 | 0.00 | 0.00 | 37 | 1020.6 |
| 20260905084856 | 73 | 274 | 2.0 | 3.0 | 0.00 | 0.00 | 0.00 | 37 | 1020.6 |
| 20260905084402 | 71 | 281 | 0.0 | 2.0 | 0.00 | 0.00 | 0.00 | 38 | 1020.6 |
| 20260905084357 | 72 | 274 | 1.0 | 3.0 | 0.00 | 0.00 | 0.00 | 37 | 1020.6 |
| 20260905083356 | 71 | 264 | 0.0 | 0.0 | 0.00 | 0.00 | 0.00 | 39 | 1020.6 |
| 20260905082856 | 71 | 264 | 0.0 | 0.0 | 0.00 | 0.00 | 0.00 | 38 | 1020.6 |
| 20260905082626 | 72 | 264 | 0.0 | 0.0 | 0.00 | 0.00 | 0.00 | 38 | 1020.6 |
| 20260905081853 | 71 | 264 | 0.0 | 1.0 | 0.00 | 0.00 | 0.00 | 38 | 1020.6 |
| 20260905081355 | 71 | 264 | 0.0 | 1.0 | 0.00 | 0.00 | 0.00 | 38 | 1020.6 |
| 20260905080853 | 71 | 264 | 0.0 | 1.0 | 0.00 | 0.00 | 0.00 | 39 | 1020.6 |
| 20260905080356 | 71 | 264 | 0.0 | 0.0 | 0.00 | 0.00 | 0.00 | 39 | 1020.6 |
| 20260905075854 | 71 | 264 | 0.0 | 1.0 | 0.00 | 0.00 | 0.00 | 39 | 1020.6 |
| 20260905075356 | 71 | 264 | 0.0 | 1.0 | 0.00 | 0.00 | 0.00 | 39 | 1020.6 |
| 20260905074855 | 71 | 264 | 0.0 | 0.0 | 0.00 | 0.00 | 0.00 | 38 | 1020.6 |
| 20260905074353 | 71 | 264 | 0.0 | 0.0 | 0.00 | 0.00 | 0.00 | 39 | 1020.6 |
| 20260905073852 | 71 | 202 | 0.0 | 1.0 | 0.00 | 0.00 | 0.00 | 38 | 1020.6 |
| 20260905073353 | 72 | 158 | 0.0 | 1.0 | 0.00 | 0.00 | 0.00 | 38 | 1020.6 |
| 20260905072851 | 72 | 257 | 0.0 | 1.0 | 0.00 | 0.00 | 0.00 | 37 | 1020.6 |
| 20260905072352 | 73 | 265 | 0.0 | 2.0 | 0.00 | 0.00 | 0.00 | 38 | 1020.6 |
| 20260905071851 | 73 | 270 | 1.0 | 2.0 | 0.00 | 0.00 | 0.00 | 37 | 1020.6 |
| 20260905071352 | 73 | 270 | 1.0 | 3.0 | 0.00 | 0.00 | 0.00 | 37 | 1020.6 |
| 20260905071127 | 73 | 276 | 0.0 | 3.0 | 0.00 | 0.00 | 0.00 | 37 | 1020.6 |
| 20260905070624 | 73 | 274 | 0.0 | 1.0 | 0.00 | 0.00 | 0.00 | 37 | 1020.6 |
| 20260905070122 | 73 | 274 | 1.0 | 5.0 | 0.00 | 0.00 | 0.00 | 37 | 1020.6 |
| 20260905065351 | 73 | 274 | 2.0 | 6.0 | 0.00 | 0.00 | 0.00 | 37 | 1020.6 |
| 20260905064849 | 74 | 292 | 3.0 | 6.0 | 0.00 | 0.00 | 0.00 | 36 | 1020.6 |
| 20260905064350 | 73 | 281 | 2.0 | 5.0 | 0.00 | 0.00 | 0.00 | 36 | 1020.6 |
| 20260905064120 | 73 | 278 | 2.0 | 4.0 | 0.00 | 0.00 | 0.00 | 37 | 1020.6 |
| 20260905063350 | 73 | 281 | 1.0 | 4.0 | 0.00 | 0.00 | 0.00 | 36 | 1020.6 |
| 20260905062848 | 73 | 275 | 2.0 | 3.0 | 0.00 | 0.00 | 0.00 | 36 | 1020.6 |
| 20260905062349 | 73 | 281 | 2.0 | 4.0 | 0.00 | 0.00 | 0.00 | 36 | 1020.6 |
| 20260905062123 | 73 | 285 | 2.0 | 4.0 | 0.00 | 0.00 | 0.00 | 36 | 1020.6 |
| 20260905061347 | 73 | 285 | 3.0 | 4.0 | 0.00 | 0.00 | 0.00 | 37 | 1020.6 |
| 20260905060848 | 72 | 297 | 2.0 | 4.0 | 0.00 | 0.00 | 0.00 | 38 | 1020.6 |
| 20260905060348 | 72 | 278 | 2.0 | 4.0 | 0.00 | 0.00 | 0.00 | 38 | 1020.6 |
| 20260905060118 | 72 | 286 | 2.0 | 4.0 | 0.00 | 0.00 | 0.00 | 38 | 1020.6 |
| 20260905055346 | 73 | 296 | 2.0 | 4.0 | 0.00 | 0.00 | 0.00 | 37 | 1020.6 |
| 20260905054847 | 72 | 288 | 3.0 | 7.0 | 0.00 | 0.00 | 0.00 | 37 | 1020.6 |
| 20260905054348 | 72 | 295 | 4.0 | 7.0 | 0.00 | 0.00 | 0.00 | 38 | 1020.6 |
| 20260905053847 | 72 | 307 | 4.0 | 7.0 | 0.00 | 0.00 | 0.00 | 38 | 1020.6 |
| 20260905053346 | 73 | 285 | 4.0 | 7.0 | 0.00 | 0.00 | 0.00 | 37 | 1020.6 |
| 20260905052847 | 73 | 295 | 4.0 | 6.0 | 0.00 | 0.00 | 0.00 | 37 | 1020.6 |
| 20260905052349 | 73 | 294 | 4.0 | 6.0 | 0.00 | 0.00 | 0.00 | 37 | 1020.6 |
| 20260905051848 | 72 | 283 | 4.0 | 6.0 | 0.00 | 0.00 | 0.00 | 38 | 1020.6 |
| 20260905051348 | 72 | 297 | 4.0 | 6.0 | 0.00 | 0.00 | 0.00 | 38 | 1020.6 |
| 20260905050847 | 71 | 301 | 4.0 | 6.0 | 0.00 | 0.00 | 0.00 | 39 | 1020.6 |
| 20260905050349 | 71 | 301 | 4.0 | 6.0 | 0.00 | 0.00 | 0.00 | 39 | 1020.6 |
| 20260905050117 | 71 | 302 | 4.0 | 6.0 | 0.00 | 0.00 | 0.00 | 39 | 1020.6 |
| 20260905045348 | 71 | 296 | 4.0 | 5.0 | 0.00 | 0.00 | 0.00 | 40 | 1020.6 |
| 20260905044847 | 71 | 293 | 4.0 | 6.0 | 0.00 | 0.00 | 0.00 | 39 | 1020.6 |
| 20260905044347 | 71 | 304 | 4.0 | 6.0 | 0.00 | 0.00 | 0.00 | 39 | 1020.6 |
| 20260905043847 | 71 | 296 | 4.0 | 6.0 | 0.00 | 0.00 | 0.00 | 39 | 1020.6 |
| 20260905043346 | 72 | 304 | 4.0 | 6.0 | 0.00 | 0.00 | 0.00 | 38 | 1020.6 |
| 20260905043118 | 72 | 302 | 4.0 | 6.0 | 0.00 | 0.00 | 0.00 | 38 | 1020.6 |
| 20260905042348 | 73 | 311 | 4.0 | 7.0 | 0.00 | 0.00 | 0.00 | 38 | 1020.6 |
| 20260905041846 | 74 | 297 | 4.0 | 7.0 | 0.00 | 0.00 | 0.00 | 37 | 1020.6 |
| 20260905041348 | 74 | 316 | 4.0 | 6.0 | 0.00 | 0.00 | 0.00 | 37 | 1020.6 |
| 20260905040849 | 74 | 333 | 3.0 | 6.0 | 0.00 | 0.00 | 0.00 | 37 | 1020.6 |
| 20260905040351 | 75 | 325 | 3.0 | 7.0 | 0.00 | 0.00 | 0.00 | 36 | 1020.6 |
| 20260905040346 | 74 | 333 | 3.0 | 6.0 | 0.00 | 0.00 | 0.00 | 37 | 1020.6 |
| 20260905035349 | 75 | 323 | 3.0 | 7.0 | 0.00 | 0.00 | 0.00 | 36 | 1020.6 |
| 20260905034847 | 75 | 323 | 2.0 | 6.0 | 0.00 | 0.00 | 0.00 | 36 | 1020.6 |
| 20260905034619 | 75 | 345 | 2.0 | 6.0 | 0.00 | 0.00 | 0.00 | 35 | 1020.6 |
| 20260905033848 | 75 | 299 | 2.0 | 4.0 | 0.00 | 0.00 | 0.00 | 36 | 1020.6 |
| 20260905033346 | 75 | 311 | 2.0 | 5.0 | 0.00 | 0.00 | 0.00 | 35 | 1020.6 |
| 20260905032847 | 75 | 313 | 2.0 | 5.0 | 0.00 | 0.00 | 0.00 | 36 | 1020.6 |
| 20260905032346 | 74 | 310 | 2.0 | 4.0 | 0.00 | 0.00 | 0.00 | 36 | 1020.6 |
| 20260905031848 | 75 | 304 | 1.0 | 3.0 | 0.00 | 0.00 | 0.00 | 36 | 1020.6 |
| 20260905031347 | 76 | 301 | 1.0 | 2.0 | 0.00 | 0.00 | 0.00 | 35 | 1020.6 |
| 20260905030846 | 76 | 288 | 1.0 | 2.0 | 0.00 | 0.00 | 0.00 | 35 | 1020.6 |
| 20260905030348 | 76 | 278 | 0.0 | 2.0 | 0.00 | 0.00 | 0.00 | 35 | 1020.6 |